EW4496 Weather Reports


time (UTC)temp
C
wind
direction
speed
KPH
gust
KPH
rain 1hr
cm
rain 24hr
cm
rain mn
cm
humidity
%
barometer
mb
20260901160045 17 234 3.2 12.9 0.00 0.00 0.00 69 1014.9
20260901154610 17 264 6.4 14.5 0.00 0.00 0.00 71 1014.8
20260901153049 17 259 3.2 19.3 0.00 0.00 0.00 71 1014.6
20260901151546 16 228 4.8 12.9 0.00 0.00 0.00 74 1014.3
20260901150114 16 179 3.2 14.5 0.00 0.00 0.00 75 1014.3
20260901144600 15 243 3.2 11.3 0.00 0.00 0.00 77 1014.2
20260901143100 15 219 3.2 11.3 0.00 0.00 0.00 79 1014.0
20260901141604 14 279 1.6 8.0 0.00 0.00 0.00 80 1013.7
20260901134600 13 220 3.2 11.3 0.00 0.00 0.00 82 1013.3
20260901133100 13 229 6.4 16.1 0.00 0.00 0.00 82 1013.2
20260901131602 13 230 1.6 9.7 0.00 0.00 0.00 81 1013.1
20260901130005 14 193 4.8 12.9 0.00 0.00 0.00 81 1013.0
20260901124510 14 229 3.2 11.3 0.00 0.00 0.00 80 1012.8
20260901123005 14 222 6.4 16.1 0.00 0.00 0.00 81 1012.8
20260901121506 13 179 3.2 9.7 0.00 0.00 0.00 81 1012.9
20260901120020 13 221 1.6 8.0 0.00 0.00 0.00 80 1012.9
20260901114519 14 236 3.2 9.7 0.00 0.00 0.00 80 1012.6
20260901113020 14 241 4.8 12.9 0.00 0.00 0.00 79 1012.5
20260901111519 15 240 3.2 12.9 0.00 0.00 0.00 78 1012.4
20260901110043 15 218 4.8 12.9 0.00 0.00 0.00 78 1012.5
20260901104534 14 211 4.8 11.3 0.00 0.00 0.00 79 1012.5
20260901103038 14 238 3.2 12.9 0.00 0.00 0.00 80 1012.3
20260901101535 14 211 6.4 12.9 0.00 0.00 0.00 80 1012.3
20260901100033 13 233 3.2 9.7 0.00 0.00 0.00 82 1012.5
20260901094533 13 238 3.2 12.9 0.00 0.00 0.00 82 1012.5
20260901093036 13 219 3.2 9.7 0.00 0.00 0.00 83 1012.4
20260901091534 13 204 4.8 14.5 0.00 0.00 0.00 82 1012.4
20260901090033 13 229 3.2 9.7 0.00 0.00 0.00 82 1012.6
20260901084533 13 203 4.8 12.9 0.00 0.00 0.00 82 1012.7
20260901083033 14 177 4.8 12.9 0.00 0.00 0.00 82 1012.6
20260901081533 14 229 6.4 14.5 0.00 0.00 0.00 82 1012.5
20260901080038 14 212 4.8 14.5 0.00 0.00 0.00 82 1012.6
20260901074532 14 196 8.0 12.9 0.00 0.00 0.00 82 1012.5
20260901073003 14 194 4.8 16.1 0.00 0.00 0.00 82 1012.4
20260901071502 14 181 4.8 14.5 0.00 0.00 0.00 82 1012.3
20260901070002 14 232 4.8 11.3 0.00 0.00 0.00 81 1012.3
20260901064522 14 228 3.2 11.3 0.00 0.00 0.00 82 1012.3
20260901063040 14 239 1.6 8.0 0.00 0.00 0.00 81 1012.3
20260901061517 14 255 3.2 8.0 0.00 0.00 0.00 82 1012.4
20260901060017 14 223 1.6 8.0 0.00 0.00 0.00 81 1012.3
20260901054517 15 261 0.0 9.7 0.00 0.00 0.00 80 1012.2
20260901053017 15 263 1.6 9.7 0.00 0.00 0.00 79 1012.2
20260901051517 15 233 0.0 12.9 0.00 0.00 0.00 78 1012.2
20260901050051 15 262 1.6 12.9 0.00 0.00 0.00 78 1012.2
20260901044533 16 262 0.0 8.0 0.00 0.00 0.00 76 1012.2
20260901043042 16 293 1.6 9.7 0.00 0.00 0.00 76 1012.0
20260901041543 16 304 0.0 9.7 0.00 0.00 0.00 76 1011.9
20260901040042 16 260 0.0 8.0 0.00 0.00 0.00 76 1011.6
20260901034546 16 266 0.0 8.0 0.00 0.00 0.00 75 1011.5
20260901033044 17 283 1.6 8.0 0.00 0.00 0.00 74 1011.1
20260901031542 17 245 0.0 9.7 0.00 0.00 0.00 72 1010.9
20260901030057 17 359 1.6 11.3 0.00 0.00 0.00 71 1010.7
20260901024556 18 328 3.2 14.5 0.00 0.00 0.00 69 1010.5
20260901023056 18 354 3.2 19.3 0.00 0.00 0.00 66 1010.5
20260901021602 19 5 4.8 20.9 0.00 0.00 0.00 64 1010.4
20260901020111 20 1 6.4 24.1 0.00 0.00 0.00 60 1010.2
20260901014611 21 344 6.4 19.3 0.00 0.00 0.00 57 1010.0
20260901013127 22 347 6.4 16.1 0.00 0.00 0.00 53 1009.9
20260901011515 23 1 3.2 19.3 0.00 0.00 0.00 52 1009.9
20260901010021 23 319 4.8 14.5 0.00 0.00 0.00 49 1009.9
20260901004517 24 334 4.8 16.1 0.00 0.00 0.00 48 1010.0
20260901003011 24 307 4.8 17.7 0.00 0.00 0.00 47 1010.2
20260901001514 25 261 3.2 16.1 0.00 0.00 0.00 47 1010.1
20260901000010 25 15 4.8 19.3 0.00 0.00 0.00 48 1010.1
20260831234510 25 205 6.4 14.5 0.00 0.00 0.00 48 1010.1
20260831233011 25 340 4.8 16.1 0.00 0.00 0.00 47 1010.3
20260831231511 25 340 3.2 17.7 0.00 0.00 0.00 47 1010.3
20260831230009 25 18 1.6 16.1 0.00 0.00 0.00 46 1010.5
20260831224510 25 356 0.0 16.1 0.00 0.00 0.00 47 1010.6
20260831223027 26 29 1.6 16.1 0.00 0.00 0.00 45 1010.6
20260831221611 26 334 0.0 20.9 0.00 0.00 0.00 45 1010.7
20260831220010 26 347 1.6 16.1 0.00 0.00 0.00 45 1010.8
20260831214510 26 279 3.2 17.7 0.00 0.00 0.00 44 1011.0
20260831213010 25 274 3.2 12.9 0.00 0.00 0.00 43 1011.1
20260831211532 25 330 1.6 14.5 0.00 0.00 0.00 44 1011.2
20260831210034 25 26 4.8 17.7 0.00 0.00 0.00 45 1011.3
20260831204526 25 321 1.6 14.5 0.00 0.00 0.00 45 1011.3
20260831203030 24 314 3.2 12.9 0.00 0.00 0.00 47 1011.4
20260831201529 23 302 6.4 14.5 0.00 0.00 0.00 49 1011.7
20260831200030 23 312 3.2 14.5 0.00 0.00 0.00 50 1011.8
20260831194614 23 273 1.6 14.5 0.00 0.00 0.00 51 1011.9
20260831193101 22 3 4.8 16.1 0.00 0.00 0.00 52 1012.1
20260831191559 22 266 4.8 19.3 0.00 0.00 0.00 53 1012.1
20260831190100 22 330 4.8 16.1 0.00 0.00 0.00 53 1012.1
20260831184602 22 222 3.2 16.1 0.00 0.00 0.00 55 1012.2
20260831183104 21 300 3.2 17.7 0.00 0.00 0.00 54 1012.1
20260831181614 21 347 3.2 12.9 0.00 0.00 0.00 56 1012.1
20260831180113 21 6 3.2 12.9 0.00 0.00 0.00 57 1012.1
20260831174614 21 355 1.6 9.7 0.00 0.00 0.00 56 1012.1
20260831173114 21 315 0.0 9.7 0.00 0.00 0.00 59 1012.0
20260831171517 20 278 1.6 11.3 0.00 0.00 0.00 60 1012.0
20260831170015 20 228 0.0 6.4 0.00 0.00 0.00 61 1011.9
20260831164513 19 307 1.6 11.3 0.00 0.00 0.00 64 1011.9
20260831163100 19 316 0.0 8.0 0.00 0.00 0.00 65 1011.9
20260831161604 18 271 0.0 8.0 0.00 0.00 0.00 67 1011.9